[[{"header":{"parameterUnit":"m.s-1","parameterCategory":1,"la1":30.2991,"la2":30.254,"lo1":-89.0895,"lo2":-89.0444,"dy":0.0017,"dx":0.0017,"nx":28,"ny":28,"refTime":"2023-09-07T21:00:00:Z","depth":0,"parameterNumber":2,"parameterNumberName":"U-component_of_WINDS"},"data":[0,0,0,0,0,0,0,0,0,0,0,0,0,0,0,0,0,0,0,0,0,0,0,0,0,0,0,0,0,0,0,0,0,0,0,0,0,0,0,0,0,0,0,0,0,0,0,0,0,0,0,0,0,0,0,0,0,0,-0.9944,-0.9945,0,-0.9958,-0.9958,-0.9958,-0.9881,-0.9878,-0.9876,-0.9874,-0.9891,-0.9894,-0.9896,0,0,0,0,0,0,0,0,0,0,0,0,0,-0.9854,-0.9856,-0.9944,-0.9945,-0.9945,-0.9958,-0.9958,-0.9958,-0.9881,-0.9878,-0.9876,-0.9873,-0.989,-0.9893,-0.9896,0,0,0,0,0,0,0,0,0,0,0,0,0,-0.9883,-0.9857,-0.9944,-0.9908,-0.9905,-0.9958,-0.9958,-0.9958,-0.9882,-0.9878,-0.9875,-0.9872,-0.9889,-0.9893,-0.9897,-0.9987,0,0,-0.9908,-0.991,0,0,0,0,0,0,0,0,-0.9882,-0.9887,-0.9913,-0.991,-0.9907,-0.9914,-0.9932,-0.9968,-0.9882,-0.9891,-0.9874,-0.987,-0.9902,-0.9904,-0.9914,-0.9987,-0.9988,-0.9909,-0.9911,-0.9913,-0.9914,0,0,0,0,0,0,0,-0.988,-0.9886,-0.995,-0.9913,-0.991,-0.9891,-0.9892,-0.9939,-0.9915,-0.989,-0.9884,-0.9886,-0.9899,-0.9911,-0.9914,-0.9988,-0.9908,-0.9912,-0.9914,-0.9916,-1.0136,-1.0139,0,0,0,0,0,0,-0.9882,-0.9885,-0.9949,-0.995,-0.9886,-0.9896,-0.9896,-0.9915,-0.9914,-0.991,-0.9889,-0.9883,-0.9906,-0.991,-0.9914,-1.002,-0.9912,-0.9916,-0.9918,-1.0132,-1.0137,-1.0141,0,0,0,0,0,0,-0.9881,-0.9889,-0.9949,-0.9916,-0.9922,-0.9901,-0.9923,-0.9917,-0.9928,-0.9914,-0.9909,-0.9905,-0.9903,-0.9909,-0.9969,-1.002,-0.9918,-0.9921,-1.0128,-1.0134,-1.0139,-1.0232,0,0,0,0,0,0,-0.9879,-0.9889,-0.9922,-0.9917,-0.9924,-1.0003,-0.9926,-0.992,-0.9935,-0.9926,-0.9927,-0.9924,-0.9901,-0.9964,-0.9973,-1.0023,-0.9924,-1.0124,-1.0131,-1.0137,-1.0225,-1.024,-1.0253,0,0,0,0,0,-0.9876,-0.9949,-0.9925,-0.9933,-0.9965,-1.0006,-1.001,-0.9981,-0.9939,-0.9973,-0.9963,-0.9924,-1.0012,-0.9971,-0.998,-1.0032,-1.012,-1.0129,-1.0136,-1.0218,-1.0237,-1.0253,0,0,0,0,0,0,-0.9962,-0.9948,-0.992,-0.9994,-1.0002,-0.9993,-1.0035,-1.0002,-1.0023,-1.0014,-0.9978,-0.9979,-1.0046,-1.0044,-0.9998,-1.0119,-1.0059,-1.0069,-1.0118,-1.0136,-1.015,-1.015,-0.9927,0,0,0,0,0,-0.999,-1.0023,-1.0008,-1.0075,-1.008,-1.0057,-1.0074,-1.005,-1.0057,-1.0061,-1.0055,-1.0064,-1.0094,-1.0114,-1.014,-1.0223,-1.0223,-1.0263,-1.0278,-1.029,-1.03,-1.0344,-1.0362,-1.0167,-1.0167,-1.0167,0,0,-1.0047,-1.0043,-1.0067,-1.0092,-1.0095,-1.0132,-1.006,-1.0102,-1.0129,-1.0067,-1.0124,-1.012,-1.0127,-1.0199,-1.0231,-1.02,-1.0353,-1.03,-1.0309,-1.0313,-1.0354,-1.0373,-1.0389,-1.0173,-1.0172,-1.0171,0,0,-1.0171,-1.0171,-1.0226,-1.0231,-1.0236,-1.022,-1.0233,-1.0229,-1.0224,-1.0279,-1.0234,-1.0265,-1.0316,-1.0324,-1.0335,-1.0459,-1.0425,-1.0469,-1.0545,-1.0589,-1.0604,-1.0617,-1.0663,-1.068,-1.0478,-1.0479,-1.0479,0,-1.0243,-1.0295,-1.026,-1.0304,-1.0317,-1.026,-1.0317,-1.0323,-1.0337,-1.0348,-1.0313,-1.0376,-1.0377,-1.045,-1.048,-1.049,-1.0505,-1.047,-1.0604,-1.0617,-1.063,-1.0673,-1.069,-1.0484,-1.0483,-1.0483,-1.0482,0,-1.0383,-1.042,-1.0464,-1.0478,-1.0495,-1.0545,-1.0518,-1.054,-1.0515,-1.0503,-1.056,-1.0559,-1.0584,-1.0599,-1.0575,-1.0669,-1.065,-1.061,-1.055,-1.0654,-1.0695,-1.0711,-1.0492,-1.049,-1.0488,-1.0487,0,0,-1.0565,-1.0557,-1.0574,-1.0579,-1.058,-1.0608,-1.0656,-1.0679,-1.0699,-1.071,-1.075,-1.0793,-1.0756,-1.0768,-1.0744,-1.0782,-1.0882,-1.0738,-1.0737,-1.0766,-1.0987,-1.1018,-1.1038,-1.0858,-1.0861,-1.0863,-1.0987,0,-1.0687,-1.0767,-1.0736,-1.082,-1.0853,-1.08,-1.0841,-1.0846,-1.0836,-1.0863,-1.0851,-1.0883,-1.0831,-1.0838,-1.0873,-1.0863,-1.0927,-1.0853,-1.0896,-1.0898,-1.0899,-1.1059,-1.1092,-1.1209,-1.1002,-1.1005,-1.1006,0,-1.0841,-1.0858,-1.0944,-1.0938,-1.0951,-1.0989,-1.1008,-1.1034,-1.1039,-1.1028,-1.1041,-1.1008,-1.1055,-1.0992,-1.1057,-1.1008,-1.1023,-1.1021,-1.1024,-1.1029,-1.0961,-1.107,-1.1245,-1.1264,-1.1031,-1.1029,-1.1027,0,-1.0968,-1.101,-1.1068,-1.1074,-1.1068,-1.1096,-1.1095,-1.1096,-1.1112,-1.1128,-1.1138,-1.116,-1.1173,-1.119,-1.1165,-1.1121,-1.1233,-1.1169,-1.1227,-1.1228,-1.1256,-1.1255,-1.1438,-1.1262,-1.1262,-1.1261,-1.1261,0,-1.1109,-1.1164,-1.1124,-1.116,-1.122,-1.1183,-1.1245,-1.1238,-1.1239,-1.1273,-1.1227,-1.126,-1.1222,-1.1252,-1.1232,-1.1289,-1.1294,-1.1288,-1.1283,-1.1294,-1.1295,-1.1305,-1.1297,-1.1266,-1.1265,-1.1264,-1.1263,0,-1.1261,-1.1236,-1.1295,-1.1284,-1.1283,-1.1328,-1.1319,-1.1352,-1.1336,-1.138,-1.1388,-1.1365,-1.1397,-1.1372,-1.1404,-1.139,-1.1466,-1.1448,-1.1465,-1.1461,-1.1522,-1.1517,-1.172,-1.1745,-1.1551,-1.1553,-1.1554,0,-1.1354,-1.1396,-1.1388,-1.1407,-1.1409,-1.144,-1.1455,-1.142,-1.1438,-1.1446,-1.1478,-1.1505,-1.1526,-1.158,-1.1567,-1.1591,-1.1574,-1.1643,-1.1578,-1.1588,-1.1578,-1.1576,-1.1581,-1.1658,-1.166,-1.1662,-1.1664,0,-1.1523,-1.1508,-1.1532,-1.1551,-1.157,-1.1584,-1.1594,-1.1612,-1.1576,-1.1599,-1.1631,-1.1647,-1.1678,-1.1707,-1.1726,-1.1725,-1.169,-1.1684,-1.1699,-1.1712,-1.1721,-1.1719,-1.1504,-1.168,-1.1678,-1.1677,-1.1676,-1.1676,-1.165,-1.1684,-1.1684,-1.1712,-1.1715,-1.1725,-1.1756,-1.1743,-1.1769,-1.1791,-1.1769,-1.1807,-1.181,-1.1832,-1.1835,-1.1866,-1.1837,-1.1859,-1.1865,-1.1871,-1.1881,-1.1714,-1.1869,-1.1868,-1.1868,-1.1867,-1.1867,0,-1.1817,-1.1814,-1.184,-1.1855,-1.1877,-1.1838,-1.1847,-1.1868,-1.1903,-1.1908,-1.1928,-1.1965,-1.1992,-1.198,-1.2003,-1.203,-1.2014,-1.2038,-1.2037,-1.2037,-1.1904,-1.1889,-1.205,-1.205,-1.205,-1.205,-1.205,-1.205,-1.1907,-1.1963,-1.1948,-1.2006,-1.2002,-1.2039,-1.2047,-1.2057,-1.206,-1.2103,-1.2125,-1.2116,-1.2114,-1.2137,-1.216,-1.2156,-1.2168,-1.2198,-1.2188,-1.2065,-1.2047,-1.203,-1.2016,-1.22,-1.2201,-1.2319,-1.232,-1.2321]},{"header":{"parameterUnit":"m.s-1","parameterCategory":1,"la1":30.2991,"la2":30.254,"lo1":-89.0895,"lo2":-89.0444,"dy":0.0017,"dx":0.0017,"nx":28,"ny":28,"refTime":"2023-09-07T21:00:00:Z","depth":0,"parameterNumber":3,"parameterNumberName":"V-component_of_WINDS"},"data":[0,0,0,0,0,0,0,0,0,0,0,0,0,0,0,0,0,0,0,0,0,0,0,0,0,0,0,0,0,0,0,0,0,0,0,0,0,0,0,0,0,0,0,0,0,0,0,0,0,0,0,0,0,0,0,0,0,0,-4.1416,-4.1417,0,-4.149,-4.149,-4.1491,-4.1425,-4.1423,-4.142,-4.1418,-4.1488,-4.1493,-4.1497,0,0,0,0,0,0,0,0,0,0,0,0,0,-4.1215,-4.1219,-4.1416,-4.1417,-4.1418,-4.1489,-4.149,-4.1491,-4.1426,-4.1423,-4.1419,-4.1416,-4.1487,-4.1492,-4.1497,0,0,0,0,0,0,0,0,0,0,0,0,0,-4.1297,-4.122,-4.1416,-4.1394,-4.1393,-4.1489,-4.149,-4.1492,-4.1427,-4.1423,-4.1419,-4.1415,-4.1485,-4.1492,-4.1498,-4.1618,0,0,-4.1518,-4.1521,0,0,0,0,0,0,0,0,-4.1292,-4.1304,-4.1396,-4.1396,-4.1395,-4.1444,-4.1445,-4.1534,-4.1428,-4.1414,-4.1417,-4.1413,-4.1477,-4.1484,-4.1506,-4.1622,-4.1625,-4.1519,-4.1523,-4.1525,-4.1527,0,0,0,0,0,0,0,-4.1287,-4.1301,-4.1445,-4.1398,-4.1397,-4.1379,-4.1386,-4.1462,-4.1466,-4.1415,-4.141,-4.142,-4.1475,-4.15,-4.1507,-4.1626,-4.1518,-4.1524,-4.1528,-4.1531,-4.1844,-4.1848,0,0,0,0,0,0,-4.1284,-4.1296,-4.1443,-4.1447,-4.1333,-4.1386,-4.1394,-4.1432,-4.1466,-4.1467,-4.1423,-4.1416,-4.1491,-4.15,-4.1509,-4.1653,-4.1525,-4.1531,-4.1535,-4.1839,-4.1845,-4.1849,0,0,0,0,0,0,-4.128,-4.1298,-4.144,-4.1371,-4.1387,-4.1394,-4.1437,-4.1436,-4.146,-4.1472,-4.1472,-4.1448,-4.1488,-4.15,-4.1592,-4.1654,-4.1534,-4.154,-4.1834,-4.1841,-4.1847,-4.194,0,0,0,0,0,0,-4.1274,-4.1297,-4.1343,-4.1372,-4.1391,-4.1523,-4.1441,-4.144,-4.1472,-4.1464,-4.1495,-4.1496,-4.1486,-4.1583,-4.1599,-4.1661,-4.1545,-4.1829,-4.1837,-4.1845,-4.1932,-4.1949,-4.1964,0,0,0,0,0,-4.1267,-4.1366,-4.1346,-4.1364,-4.145,-4.1526,-4.1537,-4.1524,-4.1478,-4.1524,-4.1532,-4.1495,-4.1645,-4.1593,-4.161,-4.1675,-4.1825,-4.1835,-4.1844,-4.1924,-4.1946,-4.1964,0,0,0,0,0,0,-4.1342,-4.1369,-4.1348,-4.1458,-4.1491,-4.1515,-4.1573,-4.1547,-4.1592,-4.1583,-4.1563,-4.1571,-4.1668,-4.1681,-4.1622,-4.1793,-4.1727,-4.1741,-4.1782,-4.1802,-4.1818,-4.1813,-4.1551,0,0,0,0,0,-4.1372,-4.1433,-4.1452,-4.1548,-4.1566,-4.1567,-4.16,-4.1587,-4.1619,-4.1632,-4.1646,-4.1678,-4.1732,-4.1768,-4.1818,-4.1933,-4.1938,-4.1986,-4.2003,-4.2016,-4.2028,-4.209,-4.2111,-4.1882,-4.1882,-4.1882,0,0,-4.1433,-4.1455,-4.1495,-4.1564,-4.1587,-4.165,-4.1579,-4.1648,-4.1694,-4.1642,-4.173,-4.1742,-4.1775,-4.188,-4.1926,-4.1893,-4.2093,-4.2029,-4.2039,-4.2044,-4.2102,-4.2124,-4.2143,-4.1889,-4.1887,-4.1886,0,0,-4.1577,-4.16,-4.1683,-4.1708,-4.1746,-4.1746,-4.1766,-4.1795,-4.1801,-4.1889,-4.1852,-4.1905,-4.1999,-4.2025,-4.205,-4.2204,-4.2172,-4.2221,-4.2306,-4.2366,-4.2384,-4.24,-4.2454,-4.2474,-4.2233,-4.2233,-4.2233,0,-4.1648,-4.1742,-4.1728,-4.18,-4.1831,-4.1789,-4.1872,-4.1897,-4.1948,-4.197,-4.1933,-4.205,-4.2069,-4.2179,-4.2217,-4.2239,-4.226,-4.2217,-4.2383,-4.2398,-4.2413,-4.2465,-4.2486,-4.2239,-4.2238,-4.2237,-4.2237,0,-4.1827,-4.1893,-4.1955,-4.2008,-4.2046,-4.2123,-4.2119,-4.2159,-4.2143,-4.2147,-4.2237,-4.226,-4.2314,-4.2339,-4.2323,-4.2447,-4.2425,-4.2386,-4.2318,-4.2441,-4.2489,-4.2509,-4.2247,-4.2245,-4.2243,-4.2242,0,0,-4.2019,-4.2064,-4.2087,-4.2111,-4.2149,-4.2199,-4.2274,-4.2328,-4.2363,-4.2399,-4.2461,-4.2541,-4.2506,-4.2534,-4.2521,-4.2574,-4.2695,-4.2528,-4.2529,-4.2558,-4.2831,-4.286,-4.2884,-4.2674,-4.2678,-4.2681,-4.2828,0,-4.2164,-4.2296,-4.2286,-4.241,-4.247,-4.2431,-4.2496,-4.2526,-4.2532,-4.2583,-4.2588,-4.2646,-4.2594,-4.2611,-4.2662,-4.267,-4.2749,-4.2659,-4.273,-4.2733,-4.2723,-4.2909,-4.294,-4.3078,-4.2847,-4.285,-4.2853,0,-4.2351,-4.2397,-4.2527,-4.2557,-4.2582,-4.2641,-4.269,-4.2739,-4.2772,-4.2772,-4.2805,-4.2783,-4.2857,-4.2789,-4.289,-4.2829,-4.2857,-4.2866,-4.287,-4.2876,-4.28,-4.292,-4.3122,-4.3143,-4.2882,-4.288,-4.2878,0,-4.2478,-4.2571,-4.2662,-4.2683,-4.272,-4.2762,-4.2779,-4.2808,-4.2842,-4.2884,-4.2906,-4.2956,-4.2983,-4.3022,-4.3014,-4.2965,-4.3117,-4.3048,-4.3118,-4.3119,-4.3152,-4.315,-4.3361,-4.3171,-4.3171,-4.317,-4.317,0,-4.2641,-4.2722,-4.2719,-4.2775,-4.2864,-4.2851,-4.294,-4.2952,-4.2978,-4.3034,-4.3003,-4.3056,-4.3042,-4.3094,-4.3088,-4.3173,-4.3185,-4.3187,-4.3184,-4.319,-4.3189,-4.3208,-4.3198,-4.3176,-4.3175,-4.3173,-4.3173,0,-4.2798,-4.2799,-4.2895,-4.2923,-4.2932,-4.2996,-4.3019,-4.3071,-4.3074,-4.3146,-4.3162,-4.3167,-4.3227,-4.3223,-4.3289,-4.3285,-4.339,-4.3376,-4.3379,-4.3376,-4.3447,-4.344,-4.3677,-4.3708,-4.3498,-4.35,-4.3502,0,-4.2901,-4.2963,-4.2998,-4.3034,-4.3055,-4.3113,-4.3148,-4.3137,-4.3174,-4.3217,-4.3263,-4.3321,-4.3366,-4.3463,-4.3472,-4.3523,-4.3509,-4.3589,-4.3517,-4.352,-4.351,-4.3507,-4.3512,-4.3603,-4.3605,-4.3607,-4.3609,0,-4.3085,-4.3083,-4.3135,-4.3188,-4.323,-4.3271,-4.3308,-4.3339,-4.3332,-4.3375,-4.3436,-4.3472,-4.3541,-4.3598,-4.3647,-4.3662,-4.3635,-4.3632,-4.3651,-4.3657,-4.3656,-4.3657,-4.3418,-4.3626,-4.3624,-4.3623,-4.3622,-4.3621,-4.3218,-4.3271,-4.3305,-4.3364,-4.3391,-4.3426,-4.3476,-4.3487,-4.3539,-4.3595,-4.3586,-4.3655,-4.3685,-4.3748,-4.3769,-4.3822,-4.3793,-4.3821,-4.3827,-4.3834,-4.3843,-4.3648,-4.3831,-4.383,-4.383,-4.3829,-4.3829,0,-4.34,-4.342,-4.3474,-4.3528,-4.3574,-4.3546,-4.3585,-4.3625,-4.3687,-4.3719,-4.3765,-4.3836,-4.3891,-4.3905,-4.3957,-4.3997,-4.3986,-4.4011,-4.4008,-4.4012,-4.3865,-4.3844,-4.402,-4.402,-4.402,-4.4019,-4.4019,-4.4019,-4.35,-4.3589,-4.3591,-4.3693,-4.3711,-4.378,-4.3805,-4.3837,-4.3863,-4.3944,-4.399,-4.4,-4.4024,-4.4078,-4.4127,-4.413,-4.415,-4.4181,-4.4179,-4.4041,-4.4022,-4.4004,-4.3983,-4.4186,-4.4186,-4.4321,-4.4322,-4.4323]}]]